When you browse on this site, cookies collect data to enhance your experience and personalize the content and advertising you see.
Visit our Privacy Policy to learn more. By continuing to use the site, you agree to this use of cookies and data.
  • In Czech Republic
  • List of Countries
  • For 7 days
  • Water Temperature
  • Weather Map
  • Weather Widgets
  • user-avatar
    Login

    Hourly Weather Lankaran

    Today, 3 April, Friday

    Time Temperature Precipitation Wind Pressure Humidity
    00:00 +4°C° 0.2 mm 2 mps 630 mmHg 93%
    01:00 +5°C° 0.1 mm 1 mps 630 mmHg 93%
    02:00 +5°C° 0.1 mm 1 mps 630 mmHg 93%
    03:00 +4°C° 0 mm 1 mps 630 mmHg 94%
    04:00 +4°C° 0 mm 1 mps 630 mmHg 94%
    05:00 +4°C° 0 mm 1 mps 630 mmHg 94%
    06:00 +4°C° 0 mm 1 mps 630 mmHg 93%
    07:00 +5°C° 0 mm 1 mps 630 mmHg 88%
    08:00 +5°C° 0 mm 2 mps 631 mmHg 83%
    09:00 +6°C° 0 mm 2 mps 632 mmHg 78%
    10:00 +7°C° 0 mm 2 mps 632 mmHg 74%
    11:00 +8°C° 0 mm 2 mps 632 mmHg 70%
    12:00 +9°C° 0 mm 2 mps 632 mmHg 65%
    13:00 +9°C° 0.2 mm 2 mps 632 mmHg 65%
    14:00 +9°C° 0.2 mm 2 mps 631 mmHg 64%
    15:00 +9°C° 0.2 mm 2 mps 631 mmHg 64%
    16:00 +8°C° 0.4 mm 2 mps 631 mmHg 71%
    17:00 +7°C° 0.4 mm 2 mps 631 mmHg 77%
    18:00 +6°C° 0.4 mm 2 mps 630 mmHg 84%
    19:00 +7°C° 0.1 mm 1 mps 631 mmHg 83%
    20:00 +6°C° 0.1 mm 1 mps 631 mmHg 83%
    21:00 +6°C° 0.1 mm 1 mps 631 mmHg 83%
    22:00 +6°C° 0 mm 1 mps 631 mmHg 81%
    23:00 +6°C° 0 mm 1 mps 631 mmHg 80%

    Tomorrow, 4 April, Saturday

    Time Temperature Precipitation Wind Pressure Humidity
    00:00 +6°C° 0 mm 1 mps 631 mmHg 79%
    01:00 +6°C° 0 mm 1 mps 631 mmHg 80%
    02:00 +5°C° 0 mm 1 mps 631 mmHg 80%
    03:00 +5°C° 0 mm 1 mps 631 mmHg 81%
    04:00 +5°C° 0 mm 1 mps 631 mmHg 82%
    05:00 +4°C° 0 mm 2 mps 631 mmHg 82%
    06:00 +4°C° 0 mm 2 mps 632 mmHg 83%
    07:00 +5°C° 0 mm 2 mps 632 mmHg 79%
    08:00 +5°C° 0 mm 3 mps 633 mmHg 75%
    09:00 +8°C° 0 mm 3 mps 634 mmHg 71%
    10:00 +8°C° 0.5 mm 3 mps 634 mmHg 72%
    11:00 +8°C° 0.5 mm 2 mps 634 mmHg 73%
    12:00 +8°C° 0.5 mm 2 mps 634 mmHg 73%
    13:00 +7°C° 0.4 mm 2 mps 633 mmHg 78%
    14:00 +5°C° 0.4 mm 3 mps 633 mmHg 83%
    15:00 +4°C° 0.4 mm 3 mps 633 mmHg 87%
    16:00 +4°C° 1.6 mm 3 mps 633 mmHg 89%
    17:00 +3°C° 1.6 mm 3 mps 633 mmHg 92%
    18:00 +2°C° 1.6 mm 3 mps 633 mmHg 94%
    19:00 +3°C° 1.6 mm 2 mps 634 mmHg 95%
    20:00 +3°C° 1.6 mm 2 mps 634 mmHg 95%
    21:00 +3°C° 1.6 mm 2 mps 635 mmHg 96%
    22:00 +4°C° 0.5 mm 1 mps 635 mmHg 95%
    23:00 +4°C° 0.5 mm 1 mps 635 mmHg 94%

    Day after tomorrow, 5 April, Sunday

    Time Temperature Precipitation Wind Pressure Humidity
    00:00 +4°C° 0.5 mm 1 mps 636 mmHg 93%
    01:00 +4°C° 0 mm 1 mps 635 mmHg 92%
    02:00 +4°C° 0 mm 1 mps 635 mmHg 91%
    03:00 +4°C° 0 mm 1 mps 635 mmHg 90%
    04:00 +3°C° 0 mm 1 mps 636 mmHg 89%
    05:00 +3°C° 0 mm 1 mps 636 mmHg 89%
    06:00 +3°C° 0 mm 1 mps 636 mmHg 88%
    07:00 +4°C° 0 mm 1 mps 636 mmHg 82%
    08:00 +6°C° 0 mm 1 mps 637 mmHg 76%
    09:00 +7°C° 0 mm 1 mps 637 mmHg 69%
    10:00 +8°C° 0 mm 1 mps 637 mmHg 66%
    11:00 +9°C° 0 mm 1 mps 637 mmHg 62%
    12:00 +10°C° 0 mm 1 mps 638 mmHg 59%
    13:00 +10°C° 0 mm 2 mps 637 mmHg 58%
    14:00 +10°C° 0 mm 2 mps 637 mmHg 57%
    15:00 +12°C° 0 mm 2 mps 636 mmHg 56%
    16:00 +10°C° 0 mm 2 mps 636 mmHg 61%
    17:00 +10°C° 0 mm 1 mps 635 mmHg 67%
    18:00 +9°C° 0 mm 1 mps 634 mmHg 73%
    19:00 +8°C° 0 mm 1 mps 634 mmHg 70%
    20:00 +8°C° 0 mm 1 mps 634 mmHg 67%
    21:00 +8°C° 0 mm 1 mps 634 mmHg 64%
    22:00 +7°C° 0 mm 1 mps 634 mmHg 63%
    23:00 +7°C° 0 mm 1 mps 633 mmHg 63%

    6 April, Monday

    Time Temperature Precipitation Wind Pressure Humidity
    00:00 +7°C° 0 mm 1 mps 633 mmHg 62%
    01:00 +6°C° 0 mm 2 mps 633 mmHg 61%
    02:00 +6°C° 0 mm 2 mps 632 mmHg 59%
    03:00 +6°C° 0 mm 2 mps 632 mmHg 57%
    04:00 +6°C° 0 mm 2 mps 632 mmHg 58%
    05:00 +6°C° 0 mm 2 mps 632 mmHg 59%
    06:00 +6°C° 0 mm 2 mps 632 mmHg 59%
    07:00 +8°C° 0 mm 2 mps 633 mmHg 56%
    08:00 +10°C° 0 mm 2 mps 633 mmHg 52%
    09:00 +12°C° 0 mm 3 mps 634 mmHg 49%
    10:00 +13°C° 0 mm 3 mps 635 mmHg 49%
    11:00 +14°C° 0 mm 3 mps 635 mmHg 49%
    12:00 +14°C° 0 mm 3 mps 635 mmHg 49%
    13:00 +13°C° 0.1 mm 3 mps 634 mmHg 59%
    14:00 +11°C° 0.1 mm 3 mps 634 mmHg 70%
    15:00 +8°C° 0.1 mm 4 mps 633 mmHg 80%
    16:00 +6°C° 1 mm 4 mps 633 mmHg 85%
    17:00 +3°C° 1 mm 5 mps 632 mmHg 90%
    18:00 0°C° 1 mm 5 mps 632 mmHg 94%
    19:00 -1°C° 2.3 mm 5 mps 632 mmHg 95%
    20:00 -2°C° 2.3 mm 5 mps 633 mmHg 95%
    21:00 -4°C° 2.3 mm 5 mps 633 mmHg 95%
    22:00 -5°C° 2.5 mm 5 mps 633 mmHg 95%
    23:00 -6°C° 2.5 mm 5 mps 633 mmHg 95%

    7 April, Tuesday

    Time Temperature Precipitation Wind Pressure Humidity
    00:00 -7°C° 2.5 mm 5 mps 634 mmHg 95%
    01:00 -8°C° 2.4 mm 4 mps 634 mmHg 95%
    02:00 -8°C° 2.4 mm 4 mps 634 mmHg 95%
    03:00 -8°C° 2.4 mm 3 mps 634 mmHg 95%
    04:00 -8°C° 1.4 mm 3 mps 635 mmHg 95%
    05:00 -8°C° 1.4 mm 3 mps 635 mmHg 95%
    06:00 -8°C° 1.4 mm 3 mps 636 mmHg 95%
    07:00 -8°C° 1.2 mm 3 mps 636 mmHg 95%
    08:00 -8°C° 1.2 mm 3 mps 636 mmHg 95%
    09:00 -7°C° 1.2 mm 3 mps 637 mmHg 95%
    10:00 -7°C° 0.8 mm 3 mps 637 mmHg 95%
    11:00 -7°C° 0.8 mm 3 mps 637 mmHg 95%
    12:00 -6°C° 0.8 mm 3 mps 637 mmHg 95%
    13:00 -6°C° 0.5 mm 3 mps 636 mmHg 94%
    14:00 -6°C° 0.5 mm 3 mps 636 mmHg 94%
    15:00 -6°C° 0.5 mm 3 mps 635 mmHg 93%
    16:00 -5°C° 0.2 mm 2 mps 635 mmHg 94%
    17:00 -6°C° 0.2 mm 2 mps 635 mmHg 94%
    18:00 -4°C° 0.2 mm 1 mps 634 mmHg 94%
    19:00 -4°C° 0.3 mm 1 mps 635 mmHg 94%
    20:00 -4°C° 0.3 mm 1 mps 635 mmHg 94%
    21:00 -4°C° 0.3 mm 1 mps 636 mmHg 94%
    22:00 -3°C° 0.6 mm 1 mps 636 mmHg 95%
    23:00 -3°C° 0.6 mm 1 mps 636 mmHg 96%

    8 April, Wednesday

    Time Temperature Precipitation Wind Pressure Humidity
    00:00 -3°C° 0.6 mm 1 mps 636 mmHg 96%
    01:00 -3°C° 0.8 mm 1 mps 636 mmHg 96%
    02:00 -3°C° 0.8 mm 1 mps 636 mmHg 96%
    03:00 -3°C° 0.8 mm 1 mps 636 mmHg 97%
    04:00 -4°C° 0.9 mm 2 mps 636 mmHg 97%
    05:00 -4°C° 0.9 mm 2 mps 636 mmHg 97%
    06:00 -4°C° 0.9 mm 2 mps 636 mmHg 97%
    07:00 -4°C° 0.8 mm 2 mps 636 mmHg 97%
    08:00 -3°C° 0.8 mm 2 mps 636 mmHg 97%
    09:00 -3°C° 0.8 mm 2 mps 636 mmHg 98%
    10:00 -3°C° 0.7 mm 2 mps 636 mmHg 97%
    11:00 -2°C° 0.7 mm 2 mps 636 mmHg 97%
    12:00 -2°C° 0.7 mm 2 mps 635 mmHg 97%
    13:00 -2°C° 0.3 mm 2 mps 635 mmHg 97%
    14:00 -2°C° 0.3 mm 2 mps 634 mmHg 97%
    15:00 -2°C° 0.3 mm 2 mps 633 mmHg 97%
    16:00 -2°C° 0.1 mm 2 mps 633 mmHg 97%
    17:00 0°C° 0.1 mm 1 mps 633 mmHg 97%
    18:00 0°C° 0.1 mm 1 mps 632 mmHg 98%
    19:00 0°C° 0 mm 1 mps 632 mmHg 98%
    20:00 0°C° 0 mm 1 mps 632 mmHg 98%
    21:00 0°C° 0 mm 1 mps 632 mmHg 98%
    22:00 0°C° 0 mm 1 mps 632 mmHg 97%
    23:00 0°C° 0 mm 1 mps 631 mmHg 97%
    Show more